"FILENAME","TIMESTAMP","SAMPLE","STATION","LATITUDE","LONGITUDE","SAMPLE_DATE","SAMPLE_TIME","DEPTH","DEPTH_UNITS","CHLOROPHYLLQ","CHLOROPHYLLV","CHLOROPHYLLU","DENSITYQ","DENSITYV","DENSITYU","DOQ","DOV","DOU","SALINITYQ","SALINITYV","SALINITYU","SUSOQ","SUSOV","SUSOU","TEMPQ","TEMPV","TEMPU","PHQ","PHV","PHU","OGQ","OGV","OGU","XMSQ","XMSV","XMSU",
"200710WQPL.csv","2008MAY29155956","1003072805","A1",  32.65933,-117.26200,"20071003",753,1,"m","",1.6218,"ug/L","",23.8992,"sigma-t","",7.83512,"mg/L","",33.668,"ppt","",,"","",19.4,"C","",8.139,"pH","",,"","",87,"%",
"200710WQPL.csv","2008MAY29155956","1003072806","A1",  32.65933,-117.26200,"20071003",753,12,"m","",3.2835,"ug/L","",25.3263,"sigma-t","",7.1758,"mg/L","",33.764,"ppt","",,"","",13.5,"C","",8.043,"pH","",,"","",87,"%",
"200710WQPL.csv","2008MAY29155956","1003072807","A1",  32.65933,-117.26200,"20071003",753,18,"m","",4.0415,"ug/L","",25.5035,"sigma-t","",6.14838,"mg/L","",33.6059,"ppt","",,"","",12,"C","",7.925,"pH","",,"","",88,"%",
"200710WQPL.csv","2008MAY29155956","1003072808","A6",  32.69267,-117.26967,"20071003",846,1,"m","",1.8713,"ug/L","",24.0253,"sigma-t","",8.13651,"mg/L","",33.6586,"ppt","",,"","",18.9,"C","",8.181,"pH","",,"","",86,"%",
"200710WQPL.csv","2008MAY29155956","1003072809","A6",  32.69267,-117.26967,"20071003",846,12,"m","",2.1767,"ug/L","",25.0814,"sigma-t","",7.44277,"mg/L","",33.6863,"ppt","",,"","",14.4,"C","",8.056,"pH","",,"","",87,"%",
"200710WQPL.csv","2008MAY29155956","1003072810","A6",  32.69267,-117.26967,"20071003",846,18,"m","",2.7505,"ug/L","",25.4244,"sigma-t","",6.46359,"mg/L","",33.6201,"ppt","",,"","",12.5,"C","",7.972,"pH","",,"","",87,"%",
"200710WQPL.csv","2008MAY29155956","1003072811","A7",  32.67550,-117.26683,"20071003",825,1,"m","",1.3896,"ug/L","",23.9256,"sigma-t","",7.92742,"mg/L","",33.6672,"ppt","",,"","",19.3,"C","",8.173,"pH","",,"","",87,"%",
"200710WQPL.csv","2008MAY29155956","1003072812","A7",  32.67550,-117.26683,"20071003",825,12,"m","",3.1627,"ug/L","",25.1706,"sigma-t","",7.42801,"mg/L","",33.8525,"ppt","",,"","",14.6,"C","",8.061,"pH","",,"","",86,"%",
"200710WQPL.csv","2008MAY29155956","1003072813","A7",  32.67550,-117.26683,"20071003",825,18,"m","",3.2912,"ug/L","",25.459,"sigma-t","",6.25224,"mg/L","",33.5909,"ppt","",,"","",12.2,"C","",7.957,"pH","",,"","",87,"%",
"200710WQPL.csv","2008MAY29155956","1003072814","C4",  32.66583,-117.24967,"20071003",1015,1,"m","",.9759,"ug/L","",24.1279,"sigma-t","",8.14249,"mg/L","",33.6486,"ppt","",,"","",18.4,"C","",8.17,"pH","",,"","",87,"%",
"200710WQPL.csv","2008MAY29155956","1003072815","C4",  32.66583,-117.24967,"20071003",1015,3,"m","",1.0855,"ug/L","",24.2786,"sigma-t","",8.27383,"mg/L","",33.6744,"ppt","",,"","",17.9,"C","",8.17,"pH","",,"","",87,"%",
"200710WQPL.csv","2008MAY29155956","1003072816","C4",  32.66583,-117.24967,"20071003",1015,9,"m","",2.9016,"ug/L","",24.845,"sigma-t","",8.01215,"mg/L","",33.7128,"ppt","",,"","",15.6,"C","",8.13,"pH","",,"","",84,"%",
"200710WQPL.csv","2008MAY29155956","1003072817","C5",  32.67917,-117.25667,"20071003",958,1,"m","",2.0609,"ug/L","",24.2737,"sigma-t","",8.47216,"mg/L","",33.6348,"ppt","",,"","",17.8,"C","",8.173,"pH","",,"","",85,"%",
"200710WQPL.csv","2008MAY29155956","1003072818","C5",  32.67917,-117.25667,"20071003",958,3,"m","",1.9943,"ug/L","",24.3216,"sigma-t","",8.42245,"mg/L","",33.6383,"ppt","",,"","",17.6,"C","",8.173,"pH","",,"","",85,"%",
"200710WQPL.csv","2008MAY29155956","1003072819","C5",  32.67917,-117.25667,"20071003",958,9,"m","",2.5361,"ug/L","",24.9413,"sigma-t","",7.87976,"mg/L","",33.6975,"ppt","",,"","",15.1,"C","",8.12,"pH","",,"","",83,"%",
"200710WQPL.csv","2008MAY29155956","1003072820","C6",  32.69367,-117.26133,"20071003",947,1,"m","",1.815,"ug/L","",24.2199,"sigma-t","",8.24269,"mg/L","",33.6406,"ppt","",,"","",18,"C","",8.171,"pH","",,"","",86,"%",
"200710WQPL.csv","2008MAY29155956","1003072821","C6",  32.69367,-117.26133,"20071003",947,3,"m","",1.9838,"ug/L","",24.2611,"sigma-t","",8.31589,"mg/L","",33.6463,"ppt","",,"","",17.9,"C","",8.17,"pH","",,"","",86,"%",
"200710WQPL.csv","2008MAY29155956","1003072822","C6",  32.69367,-117.26133,"20071003",947,9,"m","",3.071,"ug/L","",24.6921,"sigma-t","",7.82529,"mg/L","",33.6759,"ppt","",,"","",16.2,"C","",8.128,"pH","",,"","",85,"%",
"200710WQPL.csv","2008MAY29155956","1003072823","C7",  32.71633,-117.27217,"20071003",905,1,"m","",.9953,"ug/L","",24.0588,"sigma-t","",8.21533,"mg/L","",33.6599,"ppt","",,"","",18.8,"C","",8.181,"pH","",,"","",88,"%",
"200710WQPL.csv","2008MAY29155956","1003072824","C7",  32.71633,-117.27217,"20071003",905,12,"m","",3.5962,"ug/L","",24.9296,"sigma-t","",7.6324,"mg/L","",33.6874,"ppt","",,"","",15.1,"C","",8.084,"pH","",,"","",86,"%",
"200710WQPL.csv","2008MAY29155956","1003072825","C7",  32.71633,-117.27217,"20071003",905,18,"m","",1.754,"ug/L","",25.2443,"sigma-t","",6.62842,"mg/L","",33.6033,"ppt","",,"","",13.3,"C","",8.011,"pH","",,"","",84,"%",
"200710WQPL.csv","2008MAY29155956","1003072826","C8",  32.73267,-117.27333,"20071003",920,1,"m","",.9927,"ug/L","",24.0959,"sigma-t","",8.154,"mg/L","",33.6558,"ppt","",,"","",18.6,"C","",8.173,"pH","",,"","",87,"%",
"200710WQPL.csv","2008MAY29155956","1003072827","C8",  32.73267,-117.27333,"20071003",920,12,"m","",3.7125,"ug/L","",25.1047,"sigma-t","",7.77171,"mg/L","",33.6328,"ppt","",,"","",14.1,"C","",8.083,"pH","",,"","",86,"%",
"200710WQPL.csv","2008MAY29155956","1003072828","C8",  32.73267,-117.27333,"20071003",920,18,"m","",3.0045,"ug/L","",25.1714,"sigma-t","",7.27074,"mg/L","",33.5905,"ppt","",,"","",13.6,"C","",8.048,"pH","",,"","",85,"%",
"200710WQPL.csv","2008MAY29155956","1008072882","F02",  32.75697,-117.27273,"20071008",1138,1,"m","",1.0354,"ug/L","",24.1838,"sigma-t","",7.85692,"mg/L","",33.656,"ppt","",,"","",18.2,"C","",8.148,"pH","",,"","",85,"%",
"200710WQPL.csv","2008MAY29155956","1008072883","F02",  32.75697,-117.27273,"20071008",1138,12,"m","",1.9608,"ug/L","",24.6613,"sigma-t","",8.36998,"mg/L","",33.577,"ppt","",,"","",16,"C","",8.144,"pH","",,"","",88,"%",
"200710WQPL.csv","2008MAY29155956","1008072884","F02",  32.75697,-117.27273,"20071008",1138,18,"m","",2.8608,"ug/L","",25.1548,"sigma-t","",7.82733,"mg/L","",33.5123,"ppt","",,"","",13.4,"C","",8.055,"pH","",,"","",88,"%",
"200710WQPL.csv","2008MAY29155956","1008072885","F03",  32.78183,-117.27242,"20071008",1124,1,"m","",1.1283,"ug/L","",24.201,"sigma-t","",7.82279,"mg/L","",33.664,"ppt","",,"","",18.2,"C","",8.148,"pH","",,"","",87,"%",
"200710WQPL.csv","2008MAY29155956","1008072886","F03",  32.78183,-117.27242,"20071008",1124,12,"m","",2.8991,"ug/L","",24.7162,"sigma-t","",8.24717,"mg/L","",33.5787,"ppt","",,"","",15.7,"C","",8.138,"pH","",,"","",86,"%",
"200710WQPL.csv","2008MAY29155956","1008072887","F03",  32.78183,-117.27242,"20071008",1124,18,"m","",3.354,"ug/L","",25.2033,"sigma-t","",7.63585,"mg/L","",33.4983,"ppt","",,"","",13.1,"C","",8.04,"pH","",,"","",87,"%",
"200710WQPL.csv","2008MAY29155956","1008072888","F11",  32.72555,-117.29463,"20071008",816,1,"m","",2.4027,"ug/L","",24.3957,"sigma-t","",8.25186,"mg/L","",33.6064,"ppt","",,"","",17.2,"C","",8.124,"pH","",,"","",86,"%",
"200710WQPL.csv","2008MAY29155956","1008072889","F11",  32.72555,-117.29463,"20071008",816,25,"m","",4.8986,"ug/L","",25.1718,"sigma-t","",7.77775,"mg/L","",33.4884,"ppt","",,"","",13.3,"C","",8.033,"pH","",,"","",87,"%",
"200710WQPL.csv","2008MAY29155956","1008072890","F11",  32.72555,-117.29463,"20071008",816,60,"m","",.827,"ug/L","",25.7236,"sigma-t","",5.3806,"mg/L","",33.6634,"ppt","",,"","",11.1,"C","",7.848,"pH","",,"","",67,"%",
"200710WQPL.csv","2008MAY29155956","1008072891","F12",  32.74658,-117.30207,"20071008",836,1,"m","",2.0434,"ug/L","",24.3995,"sigma-t","",8.22221,"mg/L","",33.6012,"ppt","",,"","",17.2,"C","",8.157,"pH","",,"","",87,"%",
"200710WQPL.csv","2008MAY29155956","1008072892","F12",  32.74658,-117.30207,"20071008",836,60,"m","",.94,"ug/L","",25.6875,"sigma-t","",5.40756,"mg/L","",33.647,"ppt","",,"","",11.2,"C","",7.856,"pH","",,"","",85,"%",
"200710WQPL.csv","2008MAY29155956","1008072893","F12",  32.74658,-117.30207,"20071008",836,25,"m","",4.4055,"ug/L","",25.1942,"sigma-t","",7.44911,"mg/L","",33.4348,"ppt","",,"","",12.9,"C","",8.028,"pH","",,"","",89,"%",
"200710WQPL.csv","2008MAY29155956","1008072894","F13",  32.76538,-117.30720,"20071008",1048,60,"m","",.8217,"ug/L","",25.7169,"sigma-t","",5.35301,"mg/L","",33.6587,"ppt","",,"","",11.1,"C","",7.853,"pH","",,"","",85,"%",
"200710WQPL.csv","2008MAY29155956","1008072895","F13",  32.76538,-117.30720,"20071008",1048,1,"m","",.9728,"ug/L","",24.2203,"sigma-t","",8.04282,"mg/L","",33.6297,"ppt","",,"","",18,"C","",8.16,"pH","",,"","",87,"%",
"200710WQPL.csv","2008MAY29155956","1008072896","F13",  32.76538,-117.30720,"20071008",1048,25,"m","",5.6645,"ug/L","",25.0721,"sigma-t","",7.86539,"mg/L","",33.4278,"ppt","",,"","",13.5,"C","",8.066,"pH","",,"","",87,"%",
"200710WQPL.csv","2008MAY29155956","1008072897","F14",  32.78157,-117.31142,"20071008",1103,60,"m","",.6034,"ug/L","",25.7931,"sigma-t","",4.77986,"mg/L","",33.7028,"ppt","",,"","",10.8,"C","",7.822,"pH","",,"","",85,"%",
"200710WQPL.csv","2008MAY29155956","1008072898","F14",  32.78157,-117.31142,"20071008",1103,1,"m","",1.0289,"ug/L","",24.2159,"sigma-t","",8.03867,"mg/L","",33.6213,"ppt","",,"","",18,"C","",8.166,"pH","",,"","",87,"%",
"200710WQPL.csv","2008MAY29155956","1008072899","F14",  32.78157,-117.31142,"20071008",1103,25,"m","",5.4988,"ug/L","",25.0872,"sigma-t","",7.94511,"mg/L","",33.4419,"ppt","",,"","",13.5,"C","",8.071,"pH","",,"","",87,"%",
"200710WQPL.csv","2008MAY29155956","1008072900","F23",  32.74188,-117.33042,"20071008",854,60,"m","",1.694,"ug/L","",25.5414,"sigma-t","",6.22198,"mg/L","",33.5752,"ppt","",,"","",11.7,"C","",7.928,"pH","",,"","",90,"%",
"200710WQPL.csv","2008MAY29155956","1008072901","F23",  32.74188,-117.33042,"20071008",854,1,"m","",1.2975,"ug/L","",24.2426,"sigma-t","",7.87776,"mg/L","",33.6465,"ppt","",,"","",18,"C","",8.162,"pH","",,"","",88,"%",
"200710WQPL.csv","2008MAY29155956","1008072902","F23",  32.74188,-117.33042,"20071008",854,80,"m","",.4919,"ug/L","",25.8588,"sigma-t","",4.90716,"mg/L","",33.7493,"ppt","",,"","",10.7,"C","",7.823,"pH","",,"","",88,"%",
"200710WQPL.csv","2008MAY29155956","1008072903","F23",  32.74188,-117.33042,"20071008",854,25,"m","",3.4141,"ug/L","",25.0605,"sigma-t","",7.59428,"mg/L","",33.3714,"ppt","",,"","",13.4,"C","",8.046,"pH","",,"","",89,"%",
"200710WQPL.csv","2008MAY29155956","1008072904","F24",  32.76122,-117.33645,"20071008",1029,25,"m","",3.9356,"ug/L","",24.9478,"sigma-t","",8.00342,"mg/L","",33.3848,"ppt","",,"","",14,"C","",8.077,"pH","",,"","",88,"%",
"200710WQPL.csv","2008MAY29155956","1008072905","F24",  32.76122,-117.33645,"20071008",1029,60,"m","",1.5511,"ug/L","",25.5599,"sigma-t","",6.17432,"mg/L","",33.5817,"ppt","",,"","",11.6,"C","",7.923,"pH","",,"","",90,"%",
"200710WQPL.csv","2008MAY29155956","1008072906","F24",  32.76122,-117.33645,"20071008",1029,80,"m","",.5074,"ug/L","",25.8486,"sigma-t","",4.67377,"mg/L","",33.7421,"ppt","",,"","",10.7,"C","",7.805,"pH","",,"","",87,"%",
"200710WQPL.csv","2008MAY29155956","1008072907","F24",  32.76122,-117.33645,"20071008",1029,1,"m","",.7424,"ug/L","",24.1135,"sigma-t","",7.72294,"mg/L","",33.7078,"ppt","",,"","",18.7,"C","",8.157,"pH","",,"","",87,"%",
"200710WQPL.csv","2008MAY29155956","1008072908","F25",  32.77895,-117.34358,"20071008",1013,25,"m","",3.5872,"ug/L","",24.913,"sigma-t","",8.02528,"mg/L","",33.4158,"ppt","",,"","",14.2,"C","",8.09,"pH","",,"","",88,"%",
"200710WQPL.csv","2008MAY29155956","1008072909","F25",  32.77895,-117.34358,"20071008",1013,60,"m","",1.2321,"ug/L","",25.6032,"sigma-t","",6.16703,"mg/L","",33.5949,"ppt","",,"","",11.4,"C","",7.924,"pH","",,"","",90,"%",
"200710WQPL.csv","2008MAY29155956","1008072910","F25",  32.77895,-117.34358,"20071008",1013,80,"m","",.4817,"ug/L","",25.8607,"sigma-t","",4.6013,"mg/L","",33.7499,"ppt","",,"","",10.7,"C","",7.808,"pH","",,"","",88,"%",
"200710WQPL.csv","2008MAY29155956","1008072911","F25",  32.77895,-117.34358,"20071008",1013,1,"m","",.705,"ug/L","",24.1349,"sigma-t","",7.72114,"mg/L","",33.7114,"ppt","",,"","",18.6,"C","",8.16,"pH","",,"","",87,"%",
"200710WQPL.csv","2008MAY29155956","1008072912","F34",  32.73890,-117.34937,"20071008",911,25,"m","",3.2271,"ug/L","",24.9374,"sigma-t","",8.0633,"mg/L","",33.259,"ppt","",,"","",13.5,"C","",8.084,"pH","",,"","",89,"%",
"200710WQPL.csv","2008MAY29155956","1008072913","F34",  32.73890,-117.34937,"20071008",911,60,"m","",1.9934,"ug/L","",25.5083,"sigma-t","",6.20458,"mg/L","",33.5767,"ppt","",,"","",11.9,"C","",7.925,"pH","",,"","",90,"%",
"200710WQPL.csv","2008MAY29155956","1008072914","F34",  32.73890,-117.34937,"20071008",911,80,"m","",.6985,"ug/L","",25.7708,"sigma-t","",5.05933,"mg/L","",33.694,"ppt","",,"","",10.9,"C","",7.842,"pH","",,"","",90,"%",
"200710WQPL.csv","2008MAY29155956","1008072915","F34",  32.73890,-117.34937,"20071008",911,1,"m","",1.0795,"ug/L","",24.1706,"sigma-t","",7.72322,"mg/L","",33.6958,"ppt","",,"","",18.4,"C","",8.161,"pH","",,"","",88,"%",
"200710WQPL.csv","2008MAY29155956","1008072916","F34",  32.73890,-117.34937,"20071008",911,98,"m","",.3801,"ug/L","",25.9666,"sigma-t","",4.1239,"mg/L","",33.8279,"ppt","",,"","",10.4,"C","",7.77,"pH","",,"","",90,"%",
"200710WQPL.csv","2008MAY29155956","1008072917","F35",  32.75770,-117.36338,"20071008",931,1,"m","",.8286,"ug/L","",24.1601,"sigma-t","",7.71121,"mg/L","",33.7022,"ppt","",,"","",18.5,"C","",8.16,"pH","",,"","",88,"%",
"200710WQPL.csv","2008MAY29155956","1008072918","F35",  32.75770,-117.36338,"20071008",931,25,"m","",3.8588,"ug/L","",24.893,"sigma-t","",8.26277,"mg/L","",33.2556,"ppt","",,"","",13.7,"C","",8.095,"pH","",,"","",88,"%",
"200710WQPL.csv","2008MAY29155956","1008072919","F35",  32.75770,-117.36338,"20071008",931,60,"m","",1.636,"ug/L","",25.5521,"sigma-t","",6.13204,"mg/L","",33.5972,"ppt","",,"","",11.7,"C","",7.91,"pH","",,"","",90,"%",
"200710WQPL.csv","2008MAY29155956","1008072920","F35",  32.75770,-117.36338,"20071008",931,80,"m","",.7776,"ug/L","",25.7368,"sigma-t","",5.06045,"mg/L","",33.6726,"ppt","",,"","",11,"C","",7.842,"pH","",,"","",90,"%",
"200710WQPL.csv","2008MAY29155956","1008072921","F35",  32.75770,-117.36338,"20071008",931,98,"m","",.4316,"ug/L","",25.8875,"sigma-t","",4.69193,"mg/L","",33.768,"ppt","",,"","",10.6,"C","",7.809,"pH","",,"","",89,"%",
"200710WQPL.csv","2008MAY29155956","1008072922","F36",  32.77678,-117.37457,"20071008",952,1,"m","",.6895,"ug/L","",24.1201,"sigma-t","",7.67145,"mg/L","",33.704,"ppt","",,"","",18.6,"C","",8.164,"pH","",,"","",89,"%",
"200710WQPL.csv","2008MAY29155956","1008072923","F36",  32.77678,-117.37457,"20071008",952,25,"m","",4.9785,"ug/L","",24.784,"sigma-t","",8.38226,"mg/L","",33.1655,"ppt","",,"","",13.9,"C","",8.118,"pH","",,"","",88,"%",
"200710WQPL.csv","2008MAY29155956","1008072924","F36",  32.77678,-117.37457,"20071008",952,60,"m","",1.2463,"ug/L","",25.4976,"sigma-t","",6.28109,"mg/L","",33.5693,"ppt","",,"","",11.9,"C","",7.948,"pH","",,"","",91,"%",
"200710WQPL.csv","2008MAY29155956","1008072925","F36",  32.77678,-117.37457,"20071008",952,80,"m","",.8103,"ug/L","",25.7212,"sigma-t","",5.1469,"mg/L","",33.6644,"ppt","",,"","",11.1,"C","",7.847,"pH","",,"","",90,"%",
"200710WQPL.csv","2008MAY29155956","1008072926","F36",  32.77678,-117.37457,"20071008",952,98,"m","",.4037,"ug/L","",25.9162,"sigma-t","",4.57212,"mg/L","",33.7848,"ppt","",,"","",10.5,"C","",7.797,"pH","",,"","",90,"%",
"200710WQPL.csv","2008MAY29155956","1009072940","F07",  32.65113,-117.28000,"20071009",809,1,"m","",1.5767,"ug/L","",24.2569,"sigma-t","",7.96454,"mg/L","",33.6613,"ppt","",,"","",18,"C","",8.162,"pH","",,"","",87,"%",
"200710WQPL.csv","2008MAY29155956","1009072941","F07",  32.65113,-117.28000,"20071009",809,25,"m","",3.6838,"ug/L","",25.2846,"sigma-t","",7.30151,"mg/L","",33.4684,"ppt","",,"","",12.6,"C","",8.026,"pH","",,"","",89,"%",
"200710WQPL.csv","2008MAY29155956","1009072942","F07",  32.65113,-117.28000,"20071009",809,60,"m","",.697,"ug/L","",25.7447,"sigma-t","",5.05098,"mg/L","",33.6768,"ppt","",,"","",11,"C","",7.845,"pH","",,"","",86,"%",
"200710WQPL.csv","2008MAY29155956","1009072943","F08",  32.67215,-117.28298,"20071009",1138,60,"m","",.6069,"ug/L","",25.7763,"sigma-t","",4.55499,"mg/L","",33.6955,"ppt","",,"","",10.9,"C","",7.82,"pH","",,"","",80,"%",
"200710WQPL.csv","2008MAY29155956","1009072944","F08",  32.67215,-117.28298,"20071009",1138,1,"m","",.6016,"ug/L","",24.0593,"sigma-t","",7.78609,"mg/L","",33.7032,"ppt","",,"","",18.9,"C","",8.177,"pH","",,"","",87,"%",
"200710WQPL.csv","2008MAY29155956","1009072945","F08",  32.67215,-117.28298,"20071009",1138,25,"m","",4.5199,"ug/L","",25.175,"sigma-t","",7.74608,"mg/L","",33.4852,"ppt","",,"","",13.2,"C","",8.071,"pH","",,"","",87,"%",
"200710WQPL.csv","2008MAY29155956","1009072946","F09",  32.68555,-117.28632,"20071009",1123,60,"m","",.6313,"ug/L","",25.7815,"sigma-t","",4.66628,"mg/L","",33.6967,"ppt","",,"","",10.9,"C","",7.825,"pH","",,"","",82,"%",
"200710WQPL.csv","2008MAY29155956","1009072947","F09",  32.68555,-117.28632,"20071009",1123,1,"m","",.7575,"ug/L","",24.0727,"sigma-t","",7.83138,"mg/L","",33.6988,"ppt","",,"","",18.8,"C","",8.177,"pH","",,"","",87,"%",
"200710WQPL.csv","2008MAY29155956","1009072948","F09",  32.68555,-117.28632,"20071009",1123,25,"m","",4.3072,"ug/L","",25.1839,"sigma-t","",7.68651,"mg/L","",33.4864,"ppt","",,"","",13.2,"C","",8.062,"pH","",,"","",87,"%",
"200710WQPL.csv","2008MAY29155956","1009072949","F10",  32.70542,-117.29067,"20071009",1107,60,"m","",.6683,"ug/L","",25.7763,"sigma-t","",4.71284,"mg/L","",33.6973,"ppt","",,"","",10.9,"C","",7.836,"pH","",,"","",81,"%",
"200710WQPL.csv","2008MAY29155956","1009072950","F10",  32.70542,-117.29067,"20071009",1107,1,"m","",.7526,"ug/L","",24.1744,"sigma-t","",7.93768,"mg/L","",33.6725,"ppt","",,"","",18.3,"C","",8.186,"pH","",,"","",88,"%",
"200710WQPL.csv","2008MAY29155956","1009072951","F10",  32.70542,-117.29067,"20071009",1107,25,"m","",4.0436,"ug/L","",25.2029,"sigma-t","",7.50089,"mg/L","",33.4581,"ppt","",,"","",13,"C","",8.052,"pH","",,"","",88,"%",
"200710WQPL.csv","2008MAY29155956","1009072952","F19",  32.66785,-117.30683,"20071009",835,60,"m","",.8821,"ug/L","",25.6999,"sigma-t","",5.54034,"mg/L","",33.644,"ppt","",,"","",11.1,"C","",7.903,"pH","",,"","",89,"%",
"200710WQPL.csv","2008MAY29155956","1009072953","F19",  32.66785,-117.30683,"20071009",835,1,"m","",.9146,"ug/L","",24.1811,"sigma-t","",7.81312,"mg/L","",33.6962,"ppt","",,"","",18.4,"C","",8.183,"pH","",,"","",88,"%",
"200710WQPL.csv","2008MAY29155956","1009072954","F19",  32.66785,-117.30683,"20071009",835,25,"m","",4.1134,"ug/L","",25.0825,"sigma-t","",7.80869,"mg/L","",33.3777,"ppt","",,"","",13.3,"C","",8.077,"pH","",,"","",89,"%",
"200710WQPL.csv","2008MAY29155956","1009072955","F19",  32.66785,-117.30683,"20071009",835,80,"m","",.4804,"ug/L","",25.8749,"sigma-t","",4.57707,"mg/L","",33.7577,"ppt","",,"","",10.6,"C","",7.832,"pH","",,"","",86,"%",
"200710WQPL.csv","2008MAY29155956","1009072956","F20",  32.68542,-117.31097,"20071009",1046,25,"m","",3.9279,"ug/L","",25.0542,"sigma-t","",7.81421,"mg/L","",33.3734,"ppt","",,"","",13.4,"C","",8.069,"pH","",,"","",88,"%",
"200710WQPL.csv","2008MAY29155956","1009072957","F20",  32.68542,-117.31097,"20071009",1046,60,"m","",1.0659,"ug/L","",25.6744,"sigma-t","",5.55955,"mg/L","",33.6346,"ppt","",,"","",11.2,"C","",7.899,"pH","",,"","",90,"%",
"200710WQPL.csv","2008MAY29155956","1009072958","F20",  32.68542,-117.31097,"20071009",1046,80,"m","",.4558,"ug/L","",25.8779,"sigma-t","",4.72235,"mg/L","",33.763,"ppt","",,"","",10.6,"C","",7.827,"pH","",,"","",88,"%",
"200710WQPL.csv","2008MAY29155956","1009072959","F20",  32.68542,-117.31097,"20071009",1046,1,"m","",.5779,"ug/L","",24.0568,"sigma-t","",7.62599,"mg/L","",33.7057,"ppt","",,"","",18.9,"C","",8.167,"pH","",,"","",89,"%",
"200710WQPL.csv","2008MAY29155956","1009072960","F21",  32.70380,-117.31868,"20071009",1029,25,"m","",3.5194,"ug/L","",24.9929,"sigma-t","",7.98869,"mg/L","",33.4091,"ppt","",,"","",13.8,"C","",8.093,"pH","",,"","",88,"%",
"200710WQPL.csv","2008MAY29155956","1009072961","F21",  32.70380,-117.31868,"20071009",1029,60,"m","",.9195,"ug/L","",25.6956,"sigma-t","",5.56992,"mg/L","",33.6388,"ppt","",,"","",11.1,"C","",7.9,"pH","",,"","",90,"%",
"200710WQPL.csv","2008MAY29155956","1009072962","F21",  32.70380,-117.31868,"20071009",1029,80,"m","",.4906,"ug/L","",25.855,"sigma-t","",4.73937,"mg/L","",33.7455,"ppt","",,"","",10.7,"C","",7.83,"pH","",,"","",87,"%",
"200710WQPL.csv","2008MAY29155956","1009072963","F21",  32.70380,-117.31868,"20071009",1029,1,"m","",.5876,"ug/L","",24.0582,"sigma-t","",7.68927,"mg/L","",33.7066,"ppt","",,"","",18.9,"C","",8.171,"pH","",,"","",89,"%",
"200710WQPL.csv","2008MAY29155956","1009072964","F22",  32.72273,-117.32090,"20071009",1013,25,"m","",3.5498,"ug/L","",24.9606,"sigma-t","",8.21089,"mg/L","",33.4033,"ppt","",,"","",14,"C","",8.102,"pH","",,"","",88,"%",
"200710WQPL.csv","2008MAY29155956","1009072965","F22",  32.72273,-117.32090,"20071009",1013,60,"m","",1.0024,"ug/L","",25.667,"sigma-t","",5.55963,"mg/L","",33.6305,"ppt","",,"","",11.2,"C","",7.895,"pH","",,"","",89,"%",
"200710WQPL.csv","2008MAY29155956","1009072966","F22",  32.72273,-117.32090,"20071009",1013,80,"m","",.4321,"ug/L","",25.9041,"sigma-t","",4.44753,"mg/L","",33.7798,"ppt","",,"","",10.6,"C","",7.814,"pH","",,"","",87,"%",
"200710WQPL.csv","2008MAY29155956","1009072967","F22",  32.72273,-117.32090,"20071009",1013,1,"m","",.5544,"ug/L","",24.1251,"sigma-t","",7.74821,"mg/L","",33.6972,"ppt","",,"","",18.6,"C","",8.175,"pH","",,"","",89,"%",
"200710WQPL.csv","2008MAY29155956","1009072968","F30",  32.66567,-117.32483,"20071009",853,25,"m","",3.9321,"ug/L","",24.953,"sigma-t","",8.06846,"mg/L","",33.3187,"ppt","",,"","",13.7,"C","",8.1,"pH","",,"","",89,"%",
"200710WQPL.csv","2008MAY29155956","1009072969","F30",  32.66567,-117.32483,"20071009",853,60,"m","",1.4444,"ug/L","",25.6162,"sigma-t","",5.73754,"mg/L","",33.6206,"ppt","",,"","",11.5,"C","",7.914,"pH","",,"","",90,"%",
"200710WQPL.csv","2008MAY29155956","1009072970","F30",  32.66567,-117.32483,"20071009",853,80,"m","",.6533,"ug/L","",25.769,"sigma-t","",4.9981,"mg/L","",33.6912,"ppt","",,"","",10.9,"C","",7.861,"pH","",,"","",90,"%",
"200710WQPL.csv","2008MAY29155956","1009072971","F30",  32.66567,-117.32483,"20071009",853,1,"m","",.6493,"ug/L","",24.0911,"sigma-t","",7.67006,"mg/L","",33.7079,"ppt","",,"","",18.8,"C","",8.184,"pH","",,"","",89,"%",
"200710WQPL.csv","2008MAY29155956","1009072972","F30",  32.66567,-117.32483,"20071009",853,98,"m","",.3702,"ug/L","",25.9436,"sigma-t","",4.32883,"mg/L","",33.8135,"ppt","",,"","",10.5,"C","",7.806,"pH","",,"","",89,"%",
"200710WQPL.csv","2008MAY29155956","1009072973","F31",  32.68467,-117.32835,"20071009",916,1,"m","",.7084,"ug/L","",24.0947,"sigma-t","",7.68282,"mg/L","",33.7014,"ppt","",,"","",18.7,"C","",8.182,"pH","",,"","",89,"%",
"200710WQPL.csv","2008MAY29155956","1009072974","F31",  32.68467,-117.32835,"20071009",916,25,"m","",4.9034,"ug/L","",24.9096,"sigma-t","",8.1524,"mg/L","",33.1575,"ppt","",,"","",13.3,"C","",8.108,"pH","",,"","",88,"%",
"200710WQPL.csv","2008MAY29155956","1009072975","F31",  32.68467,-117.32835,"20071009",916,60,"m","",1.4773,"ug/L","",25.6317,"sigma-t","",5.71079,"mg/L","",33.6281,"ppt","",,"","",11.4,"C","",7.91,"pH","",,"","",90,"%",
"200710WQPL.csv","2008MAY29155956","1009072976","F31",  32.68467,-117.32835,"20071009",916,80,"m","",.6502,"ug/L","",25.777,"sigma-t","",5.09838,"mg/L","",33.6905,"ppt","",,"","",10.9,"C","",7.864,"pH","",,"","",90,"%",